Date String (YYYY-MM-DD hh:mm:ss) UTC,Instrument flags,absolute air pressure of the measurement (hPa),sample flow rate (lpm),inlet stack bypass flow (lpm),air temperature of the measurement (°C),ambient temperature measured by the external sensor (°C),aerosol sample conditioner tube jacket temperature (°C),OPC LED temperature (°C),internal box temperature (°C),relative humidity of the measurement (%),span deviation,mass concentration of particles derived from Lorenz-Mie calculation of OPC scattering (μg/m³),mass concentration of particles derived from Lorenz-Mie calculation of OPC scattering (μg/m³),mass concentration of particles derived from Lorenz-Mie calculation of OPC scattering (μg/m³)
DateTimeUTC,F1_M11,P_M11,Q1_M11,Q2_M11,T1_M11,T2_M11,T3_M11,T4_M11,T5_M11,U1_M11,ZSPAN_M11,X0_M11,X2_M11,X1_M11
2023-08-21 15:00:00,SystemResetWarning,0836.1,5.01,000.00,028.2,024.6,000.0,036.5,029.6,25.1,0002.7,0016.41,0006.12,0005.25
2023-08-21 15:01:00,SystemResetWarning,0836.1,5.01,000.00,028.2,024.6,000.0,036.4,029.6,25.9,0002.7,0015.45,0006.19,0005.27
2023-08-21 15:02:00,SystemResetWarning,0836.1,4.99,000.00,028.1,024.9,000.0,036.5,029.5,25.8,0002.1,0015.05,0006.22,0005.29
2023-08-21 15:03:00,SystemResetWarning,0836.1,5.00,000.00,028.1,025.3,000.0,036.5,029.6,26.1,0001.7,0014.24,0006.23,0005.31
2023-08-21 15:04:00,SystemResetWarning,0836.1,5.01,000.00,028.1,025.6,000.0,036.5,029.7,26.1,0001.4,0013.60,0006.26,0005.32
2023-08-21 15:05:00,SystemResetWarning,0836.2,5.00,000.00,028.1,026.0,000.0,036.6,029.8,26.3,0001.1,0014.07,0006.23,0005.32
2023-08-21 15:06:00,SystemResetWarning,0836.2,5.00,000.00,028.1,026.3,000.0,036.6,029.8,26.1,0001.1,0012.94,0006.21,0005.31
2023-08-21 15:07:00,SystemResetWarning,0836.2,4.99,000.00,028.2,026.5,000.0,036.6,029.9,26.3,0001.0,0012.16,0006.21,0005.30
2023-08-21 15:08:00,SystemResetWarning,0836.2,4.99,000.00,028.2,026.7,000.0,036.6,030.0,26.3,0000.9,0012.11,0006.21,0005.29
2023-08-21 15:09:00,SystemResetWarning,0836.2,4.99,000.00,028.3,026.6,000.0,036.6,030.0,26.1,0001.2,0012.02,0006.16,0005.29
2023-08-21 15:10:00,SystemResetWarning,0836.3,5.00,000.00,028.2,025.2,000.0,036.5,029.7,26.7,0001.4,0012.00,0006.19,0005.29
2023-08-21 15:11:00,SystemResetWarning,0836.2,5.00,000.00,028.2,024.4,000.0,036.4,029.6,27.1,0001.7,0011.93,0006.20,0005.30
2023-08-21 15:12:00,SystemResetWarning,0836.2,5.01,000.00,028.1,024.6,000.0,036.4,029.5,27.5,0001.8,0012.07,0006.23,0005.32
2023-08-21 15:13:00,SystemResetWarning,0836.3,5.01,000.00,028.0,024.9,000.0,036.4,029.5,26.8,0002.1,0012.34,0006.30,0005.35
2023-08-21 15:14:00,SystemResetWarning,0836.3,4.99,000.00,028.0,025.3,000.0,036.4,029.6,26.7,0002.5,0013.02,0006.33,0005.36
2023-08-21 15:15:00,SystemResetWarning,0836.3,5.00,000.00,028.0,025.7,000.0,036.5,029.7,26.5,0002.7,0013.34,0006.35,0005.39
2023-08-21 15:16:00,SystemResetWarning,0836.3,5.01,000.00,028.1,026.0,000.0,036.5,029.7,26.6,0002.9,0013.63,0006.35,0005.41
2023-08-21 15:17:00,SystemResetWarning,0836.2,5.00,000.00,028.1,026.3,000.0,036.5,029.8,26.4,0002.8,0013.83,0006.39,0005.43
2023-08-21 15:18:00,SystemResetWarning,0836.3,4.99,000.00,028.1,026.5,000.0,036.5,029.9,26.4,0002.9,0014.45,0006.48,0005.49
2023-08-21 15:19:00,SystemResetWarning,0836.4,4.99,000.00,028.2,026.5,000.0,036.5,029.9,26.2,0002.8,0014.68,0006.56,0005.55
2023-08-21 15:20:00,SystemResetWarning,0836.4,5.00,000.00,028.2,025.3,000.0,036.4,029.7,25.6,0002.3,0014.72,0006.61,0005.58
2023-08-21 15:21:00,SystemResetWarning,0836.3,5.00,000.00,028.1,024.3,000.0,036.3,029.4,25.8,0002.5,0015.01,0006.61,0005.59
2023-08-21 15:22:00,SystemResetWarning,0836.3,5.00,000.00,028.0,024.5,000.0,036.3,029.4,26.4,0002.3,0015.25,0006.65,0005.60
2023-08-21 15:23:00,SystemResetWarning,0836.3,5.01,000.00,028.0,024.8,000.0,036.3,029.4,26.7,0002.4,0015.81,0006.65,0005.65
2023-08-21 15:24:00,SystemResetWarning,0836.3,5.00,000.00,027.9,025.2,000.0,036.4,029.5,26.7,0002.2,0016.37,0006.67,0005.66
2023-08-21 15:25:00,SystemResetWarning,0836.4,5.00,000.00,028.0,025.6,000.0,036.4,029.6,26.2,0002.0,0015.90,0006.68,0005.70
2023-08-21 15:26:00,SystemResetWarning,0836.4,5.00,000.00,028.0,025.9,000.0,036.4,029.7,26.5,0002.1,0015.89,0006.73,0005.77
2023-08-21 15:27:00,SystemResetWarning,0836.4,5.00,000.00,028.0,026.2,000.0,036.4,029.7,26.6,0001.9,0015.26,0006.83,0005.85
2023-08-21 15:28:00,SystemResetWarning,0836.4,4.99,000.00,028.1,026.5,000.0,036.5,029.8,27.2,0001.9,0014.98,0006.90,0005.90
2023-08-21 15:29:00,SystemResetWarning,0836.4,4.99,000.00,028.1,026.0,000.0,036.4,029.8,28.0,0001.7,0014.55,0006.91,0005.90
2023-08-21 15:30:00,SystemResetWarning,0836.4,5.00,000.00,028.0,024.7,000.0,036.3,029.5,27.7,0001.8,0014.63,0006.93,0005.92
2023-08-21 15:31:00,SystemResetWarning,0836.3,5.01,000.00,028.0,024.2,000.0,036.2,029.3,27.5,0002.2,0014.64,0006.94,0005.95
2023-08-21 15:32:00,SystemResetWarning,0836.3,5.01,000.00,027.9,024.5,000.0,036.2,029.3,28.0,0002.2,0016.28,0007.04,0006.01
2023-08-21 15:33:00,SystemResetWarning,0836.4,5.02,000.00,027.9,024.9,000.0,036.3,029.3,27.7,0002.4,0015.97,0007.04,0006.06
2023-08-21 15:34:00,SystemResetWarning,0836.4,4.99,000.00,027.9,025.3,000.0,036.3,029.4,27.8,0002.0,0015.28,0007.03,0006.08
2023-08-21 15:35:00,SystemResetWarning,0836.4,4.99,000.00,027.9,025.7,000.0,036.3,029.5,27.8,0001.6,0015.16,0007.08,0006.12
2023-08-21 15:36:00,SystemResetWarning,0836.4,5.00,000.00,027.9,026.0,000.0,036.3,029.6,27.1,0001.6,0015.68,0007.23,0006.19
2023-08-21 15:37:00,SystemResetWarning,0836.4,5.01,000.00,028.0,026.3,000.0,036.4,029.7,27.9,0001.2,0016.16,0007.29,0006.22
2023-08-21 15:38:00,SystemResetWarning,0836.4,5.00,000.00,028.0,026.4,000.0,036.4,029.8,29.5,0001.4,0016.15,0007.33,0006.26
2023-08-21 15:39:00,SystemResetWarning,0836.4,4.98,000.00,028.0,025.5,000.0,036.3,029.5,29.8,0001.7,0016.02,0007.39,0006.33
2023-08-21 15:40:00,SystemResetWarning,0836.4,5.01,000.00,027.9,024.3,000.0,036.2,029.3,29.9,0001.8,0016.33,0007.53,0006.46
2023-08-21 15:41:00,SystemResetWarning,0836.4,5.01,000.00,027.9,024.3,000.0,036.1,029.3,29.9,0001.9,0017.00,0007.70,0006.62
2023-08-21 15:42:00,SystemResetWarning,0836.4,5.01,000.00,027.8,024.6,000.0,036.2,029.2,30.0,0001.8,0017.38,0007.84,0006.77
2023-08-21 15:43:00,SystemResetWarning,0836.5,4.99,000.00,027.8,025.0,000.0,036.2,029.3,29.6,0001.7,0016.37,0007.90,0006.85
2023-08-21 15:44:00,SystemResetWarning,0836.5,5.00,000.00,027.8,025.4,000.0,036.2,029.4,29.8,0001.5,0015.74,0008.00,0006.96
2023-08-21 15:45:00,SystemResetWarning,0836.5,5.01,000.00,027.8,025.7,000.0,036.2,029.5,29.8,0001.5,0016.29,0008.16,0007.06
2023-08-21 15:46:00,SystemResetWarning,0836.4,5.01,000.00,027.9,026.0,000.0,036.3,029.6,29.4,0001.9,0015.82,0008.28,0007.16
2023-08-21 15:47:00,SystemResetWarning,0836.5,4.99,000.00,027.9,026.3,000.0,036.3,029.7,29.5,0002.0,0015.86,0008.33,0007.25
2023-08-21 15:48:00,SystemResetWarning,0836.5,4.98,000.00,028.0,026.2,000.0,036.3,029.7,29.4,0002.2,0015.95,0008.46,0007.32
2023-08-21 15:49:00,SystemResetWarning,0836.4,5.00,000.00,027.9,024.8,000.0,036.2,029.5,29.2,0002.2,0016.18,0008.56,0007.38
2023-08-21 15:50:00,SystemResetWarning,0836.4,5.00,000.00,027.9,024.2,000.0,036.1,029.3,29.0,0002.2,0016.60,0008.57,0007.42
2023-08-21 15:51:00,SystemResetWarning,0836.4,5.01,000.00,027.8,024.4,000.0,036.1,029.3,29.4,0002.0,0016.55,0008.60,0007.44
2023-08-21 15:52:00,SystemResetWarning,0836.4,5.00,000.00,027.8,024.8,000.0,036.1,029.2,29.9,0001.8,0015.74,0008.54,0007.40
2023-08-21 15:53:00,SystemResetWarning,0836.4,4.99,000.00,027.8,025.2,000.0,036.2,029.4,29.9,0001.9,0015.30,0008.50,0007.36
2023-08-21 15:54:00,SystemResetWarning,0836.4,5.00,000.00,027.8,025.5,000.0,036.2,029.5,29.7,0002.1,0015.26,0008.52,0007.33
2023-08-21 15:55:00,SystemResetWarning,0836.4,5.00,000.00,027.8,025.9,000.0,036.2,029.5,30.2,0002.5,0015.36,0008.57,0007.34
2023-08-21 15:56:00,SystemResetWarning,0836.4,5.00,000.00,027.9,026.2,000.0,036.2,029.6,30.2,0002.4,0015.47,0008.62,0007.33
2023-08-21 15:57:00,SystemResetWarning,0836.4,5.00,000.00,027.9,026.1,000.0,036.2,029.6,30.2,0002.3,0015.52,0008.58,0007.30
2023-08-21 15:58:00,SystemResetWarning,0836.4,4.98,000.00,027.9,024.9,000.0,036.1,029.3,30.3,0002.3,0015.52,0008.53,0007.26
2023-08-21 15:59:00,SystemResetWarning,0836.4,5.01,000.00,027.8,024.1,000.0,036.0,029.1,30.0,0002.2,0015.29,0008.42,0007.19
